Somerville, NJ

9:50 PM EST on February 18, 2018 (GMT -0500)
Somerset

Weather History for KSMQ - April, 2012

Change the Weather History Date:

Monday, April 30, 2012

  Actual Average Record
Temperature  
Mean Temperature 46 °F -  
Max Temperature 66 °F 66 °F 88 °F (1942)
Min Temperature 28 °F 41 °F 28 °F (2012)
Degree Days  
Heating Degree Days 19    
Moisture  
Dew Point 27 °F    
Average Humidity 45    
Maximum Humidity 85    
Minimum Humidity 23    
Precipitation  
Precipitation 0.00 in - - ()
Sea Level Pressure  
Sea Level Pressure 30.25 in    
Wind  
Wind Speed 2 mph (South)    
Max Wind Speed 7 mph    
Max Gust Speed -    
Visibility 10 miles    
Events      
Averages and records for this station are not official NWS values.
T = Trace of Precipitation, MM = Missing Value Source: NWS Daily Summary

Daily Weather History Graph

Daily Weather History Graph

Search for Another Location

Airport or City:

Trip Planner

Search our weather history database for the weather conditions in past years. The results will help you decide how hot, cold, wet, or windy it might be!

Date:

Astronomy

Apr. 30, 2012 Rise Set
Actual Time 5:58 AM EDT 7:54 PM EDT
Civil Twilight 5:28 AM EDT 8:23 PM EDT
Nautical Twilight 4:52 AM EDT 9:00 PM EDT
Astronomical Twilight 4:13 AM EDT 9:39 PM EDT
Moon 1:46 PM EDT (4/30) 2:23 AM EDT (4/30)
Length of Visible Light 14h 55m
Length of Day
13h 55m
Waxing Gibbous, 63% of the Moon is Illuminated
Apr 30
Waxing Gibbous
May 5
Full
May 12
Last Quarter
May 20
New
May 28
First Quarter

Hourly Weather History & Observations

Time (EDT) Temp. Windchill Dew Point Humidity Pressure Visibility Wind Dir Wind Speed Gust Speed Precip Events Conditions
12:53 AM 43.0 °F 41.3 °F 19.9 °F 40% 30.26 in 10.0 mi North 3.5 mph - N/A   Clear
1:53 AM 36.0 °F - 25.0 °F 64% 30.28 in 10.0 mi Calm Calm - N/A   Clear
2:53 AM 34.0 °F - 26.1 °F 73% 30.28 in 10.0 mi Calm Calm - N/A   Clear
3:53 AM 32.0 °F - 25.0 °F 75% 30.30 in 10.0 mi Calm Calm - N/A   Clear
4:53 AM 30.9 °F - 25.0 °F 79% 30.31 in 10.0 mi Calm Calm - N/A   Clear
5:53 AM 28.9 °F - 25.0 °F 85% 30.32 in 10.0 mi Calm Calm - N/A   Clear
6:53 AM 33.1 °F 27.7 °F 27.0 °F 78% 30.32 in 10.0 mi NNE 5.8 mph - N/A   Clear
7:53 AM 41.0 °F - 26.1 °F 55% 30.33 in 10.0 mi Calm Calm - N/A   Clear
8:53 AM 51.1 °F - 23.0 °F 33% 30.33 in 10.0 mi Calm Calm - N/A   Clear
9:53 AM 54.0 °F - 17.1 °F 23% 30.32 in 10.0 mi Calm Calm - N/A   Clear
10:53 AM 57.0 °F - 21.0 °F 25% 30.30 in 10.0 mi Variable 3.5 mph - N/A   Clear
11:53 AM 57.9 °F - 21.9 °F 25% 30.30 in 10.0 mi Calm Calm - N/A   Clear
12:53 PM 60.1 °F - 24.1 °F 25% 30.27 in 10.0 mi Variable 3.5 mph - N/A   Clear
1:53 PM 62.1 °F - 25.0 °F 24% 30.25 in 10.0 mi Calm Calm - N/A   Clear
2:53 PM 63.0 °F - 26.1 °F 25% 30.23 in 10.0 mi South 3.5 mph - N/A   Clear
3:53 PM 64.9 °F - 27.0 °F 24% 30.20 in 10.0 mi Variable 4.6 mph - N/A   Scattered Clouds
4:53 PM 64.9 °F - 28.0 °F 25% 30.19 in 10.0 mi South 6.9 mph - N/A   Overcast
5:53 PM 62.1 °F - 35.1 °F 37% 30.19 in 10.0 mi Variable 3.5 mph - N/A   Overcast
6:53 PM 61.0 °F - 30.9 °F 32% 30.18 in 10.0 mi SSW 6.9 mph - N/A   Overcast
7:53 PM 57.9 °F - 35.1 °F 42% 30.19 in 10.0 mi SSW 3.5 mph - N/A   Overcast
8:53 PM 57.0 °F - 34.0 °F 42% 30.19 in 10.0 mi South 6.9 mph - N/A   Overcast
9:53 PM 55.4 °F - 33.8 °F 44% 30.18 in 10.0 mi Calm Calm - N/A   Overcast
10:53 PM 54.0 °F - 34.0 °F 47% 30.19 in 10.0 mi Variable 5.8 mph - N/A   Overcast
11:53 PM 54.0 °F - 36.0 °F 51% 30.18 in 10.0 mi SSE 4.6 mph - N/A   Overcast